STARLINK-35700, 66217

Orbit data source: Space-Track

STARLINK-35700, 66217 is a payload satellite owned by SpaceX/Seattle (US) in LEO that was launched on Tue, 28 Oct 2025 UTC via an FALCON 9 launch vehicle from the Air Force Western Test Range (AFWTR). Payload-class satellites include a variety of spacecraft equipped with specific instruments for various scientific and technological missions. These include communications satellites like Starlink; space stations such as the ISS; scientific satellites like the Hubble; Earth observation satellites from companies like Planet Labs, Umbra, and HawkEye 360; GPS; miniature CubeSats for education and research; and military/defense satellites.

Loading next visibility...
Identifier
66217, 2025-244M
Orbit
LEO
Country
Flag of USUS
Related business
Manufacturer
SpaceX/Seattle
Mission
Operational Commercial Communications
Bus & Motor
STARLINK V2MO, Unknown motor
Mass
575 kg wet, ~530 kg dry
Launch date (UTC)
2025-10-28 (8 months ago)
Launch vehicle
FALCON 9
Launch site
Air Force Western Test Range (AFWTR)
Object type
Payload
Rocket body
Debris
Shape & HBR
Box + 2 Pan, 17.7 m
Radar Cross Section
36.964 m², Large (>1 m²)

Expand to show TLE details & history
Last TLE update: 23 hours ago

TLE from 23 hours ago
0 STARLINK-35700
1 66217U 25244M   26170.87719082  .00014703  00000-0  50719-3 0  9997
2 66217  53.1574 115.3497 0001325  92.5464 267.5689 15.30223425 37291
Epoch: 2026-06-19T21:03Z
TLE epoch observation values (Epoch: 2026-06-19T21:03:09.286Z)
Latitude
0.00001°
Longitude
-108.53885°
Altitude
476.083 km
Speed
7.629 km/s
True Right ascension
07h 41m 23s
True Declination
0° 00' 00"
Sunlit
Object was in daylight at epoch
Visualization orbit readout
Latitude
Unknown
Longitude
Unknown
Altitude
Unknown
Speed
Unknown
Apparent Right ascension
Unknown
Apparent Declination
Unknown
Sunlit
N/A
Visualization observer readout
Local Sidereal Time
07:17:00
Azimuth
Unknown
Elevation
Unknown
Doppler factor
Unknown
Orbital elements
Apogee altitude
476.31 km
Perigee altitude
474.494 km
Semi-major axis
6,853.539 km
Eccentricity
0.00013
Inclination
53.1574°
RAAN
115.3497°
Arg. of periapsis
92.5464°
True anomaly
267.55373°
Mean anomaly
267.5689°
Eccentric anomaly
267.56132°
Mean motion
3.82535 °/min
Orbital period
94.11 mins
BSTAR
0.00050719
Loading maneuver chart data...
Computing Atmospheric mass density...
Loading historical data...
Loading historical data...
Loading historical data...
Loading historical data...
Loading historical data...
Loading historical data...
Loading historical data...

Documentation

Showing up to 5 results
|